Total_Precipitation_Accumulation
0.42 0.33 0.16 0.13 0.07 0.04 0.03 0.01 0.01 0.00 0.00 0.00 0.00 0.00 0.00 0.00 0.00 0.01 0.03 0.02 0.02 0.03 0.04 0.04 0.04 0.02 0.00 0.01 0.02 0.08 0.13 0.15 0.20 0.29 0.27 0.26 0.24 0.17 0.10 0.04 0.03 0.02 0.01
0.39 0.41 0.24 0.13 0.07 0.04 0.03 0.01 0.00 0.00 0.00 0.00 0.00 0.00 0.00 0.00 0.00 0.00 0.02 0.04 0.02 0.02 0.03 0.04 0.04 0.04 0.03 0.02 0.04 0.10 0.15 0.17 0.17 0.24 0.31 0.35 0.37 0.28 0.22 0.15 0.11 0.08 0.07
0.36 0.41 0.30 0.18 0.09 0.06 0.03 0.02 0.00 0.00 0.00 0.00 0.00 0.00 0.00 0.00 0.00 0.00 0.00 0.03 0.05 0.02 0.03 0.06 0.08 0.07 0.08 0.08 0.05 0.07 0.12 0.15 0.19 0.23 0.29 0.34 0.37 0.38 0.35 0.27 0.23 0.24 0.28
0.31 0.40 0.34 0.22 0.15 0.14 0.11 0.05 0.01 0.00 0.00 0.00 0.01 0.00 0.00 0.00 0.00 0.00 0.00 0.01 0.04 0.05 0.06 0.07 0.11 0.13 0.13 0.12 0.08 0.07 0.09 0.13 0.16 0.19 0.21 0.19 0.20 0.23 0.25 0.27 0.31 0.37 0.42
0.31 0.42 0.47 0.39 0.33 0.28 0.24 0.14 0.05 0.02 0.01 0.02 0.01 0.01 0.01 0.00 0.00 0.00 0.00 0.00 0.01 0.01 0.05 0.05 0.05 0.08 0.13 0.17 0.12 0.07 0.07 0.09 0.10 0.11 0.09 0.08 0.09 0.12 0.16 0.21 0.27 0.31 0.33
0.48 0.60 0.71 0.70 0.64 0.53 0.45 0.36 0.25 0.12 0.04 0.02 0.01 0.00 0.01 0.00 0.00 0.00 0.00 0.00 0.01 0.01 0.00 0.01 0.03 0.03 0.05 0.13 0.17 0.08 0.06 0.07 0.06 0.06 0.05 0.05 0.05 0.07 0.10 0.13 0.16 0.19 0.22
0.66 0.81 0.95 1.08 1.06 0.84 0.73 0.68 0.60 0.49 0.25 0.07 0.07 0.06 0.03 0.01 0.00 0.00 0.00 0.00 0.00 0.00 0.00 0.00 0.02 0.06 0.09 0.10 0.12 0.08 0.08 0.09 0.09 0.09 0.06 0.05 0.05 0.04 0.04 0.05 0.06 0.09 0.11
0.78 0.82 0.96 1.07 1.05 0.98 0.93 0.85 0.81 0.81 0.56 0.24 0.25 0.35 0.27 0.19 0.06 0.01 0.00 0.00 0.01 0.00 0.00 0.00 0.01 0.02 0.06 0.12 0.05 0.02 0.04 0.07 0.08 0.06 0.06 0.05 0.04 0.02 0.02 0.02 0.02 0.03 0.04
1.04 1.01 1.02 1.13 1.15 1.16 1.06 0.97 0.89 0.91 0.79 0.52 0.35 0.48 0.43 0.36 0.32 0.12 0.03 0.03 0.04 0.01 0.01 0.01 0.01 0.01 0.01 0.03 0.02 0.01 0.02 0.03 0.06 0.04 0.04 0.03 0.02 0.01 0.01 0.01 0.02 0.03 0.04
1.36 1.32 1.30 1.36 1.28 1.17 1.05 0.97 0.87 0.87 0.96 0.82 0.63 0.48 0.39 0.32 0.43 0.39 0.20 0.08 0.07 0.04 0.02 0.01 0.01 0.02 0.02 0.01 0.01 0.00 0.01 0.02 0.04 0.05 0.04 0.03 0.02 0.01 0.02 0.02 0.03 0.03 0.03
1.94 1.85 1.75 1.55 1.33 1.20 1.12 1.09 1.01 0.94 0.94 0.89 0.74 0.60 0.50 0.41 0.30 0.37 0.41 0.27 0.15 0.09 0.05 0.05 0.04 0.02 0.02 0.02 0.01 0.01 0.01 0.01 0.03 0.06 0.06 0.04 0.04 0.03 0.02 0.02 0.02 0.02 0.03
1.88 1.81 1.67 1.42 1.20 1.09 1.08 1.11 1.07 1.00 0.94 0.89 0.74 0.58 0.51 0.43 0.34 0.39 0.40 0.45 0.44 0.21 0.08 0.06 0.05 0.04 0.03 0.03 0.04 0.05 0.03 0.02 0.03 0.05 0.06 0.05 0.04 0.04 0.03 0.03 0.02 0.02 0.03
1.27 1.26 1.21 1.16 1.09 1.03 1.05 1.13 1.14 1.09 1.01 0.92 0.79 0.65 0.61 0.51 0.49 0.50 0.44 0.42 0.44 0.28 0.15 0.08 0.08 0.07 0.05 0.05 0.08 0.08 0.03 0.04 0.03 0.04 0.04 0.03 0.03 0.03 0.05 0.06 0.06 0.05 0.05
1.00 0.96 1.01 1.00 0.96 0.96 0.95 0.97 1.02 1.05 1.00 0.90 0.81 0.77 0.69 0.58 0.56 0.49 0.43 0.44 0.37 0.32 0.25 0.12 0.08 0.10 0.09 0.06 0.10 0.09 0.04 0.06 0.05 0.04 0.04 0.02 0.02 0.02 0.03 0.05 0.09 0.11 0.10
0.66 0.71 0.83 0.90 0.86 0.84 0.85 0.88 0.96 0.96 0.89 0.84 0.79 0.73 0.68 0.62 0.58 0.57 0.57 0.49 0.41 0.35 0.32 0.24 0.16 0.10 0.11 0.10 0.11 0.06 0.03 0.06 0.08 0.06 0.04 0.02 0.01 0.01 0.01 0.02 0.03 0.04 0.06
0.62 0.65 0.65 0.63 0.60 0.63 0.65 0.71 0.81 0.84 0.79 0.73 0.66 0.62 0.59 0.58 0.58 0.57 0.57 0.56 0.50 0.41 0.37 0.31 0.25 0.18 0.19 0.17 0.17 0.09 0.06 0.06 0.06 0.06 0.04 0.03 0.02 0.01 0.01 0.01 0.01 0.01 0.01
0.41 0.47 0.44 0.42 0.46 0.49 0.46 0.50 0.55 0.61 0.66 0.65 0.59 0.53 0.51 0.49 0.51 0.50 0.50 0.51 0.50 0.45 0.35 0.34 0.27 0.22 0.26 0.26 0.26 0.18 0.13 0.10 0.08 0.06 0.05 0.04 0.04 0.04 0.03 0.02 0.01 0.01 0.01
0.20 0.26 0.28 0.28 0.35 0.45 0.46 0.48 0.49 0.47 0.49 0.50 0.48 0.48 0.47 0.45 0.44 0.40 0.40 0.40 0.43 0.42 0.36 0.31 0.27 0.22 0.23 0.26 0.30 0.29 0.25 0.22 0.19 0.17 0.15 0.09 0.07 0.06 0.04 0.03 0.02 0.01 0.01
0.15 0.19 0.22 0.25 0.28 0.36 0.46 0.50 0.50 0.42 0.38 0.35 0.33 0.34 0.38 0.39 0.40 0.37 0.34 0.36 0.38 0.37 0.39 0.32 0.30 0.28 0.23 0.20 0.24 0.25 0.26 0.33 0.30 0.28 0.33 0.24 0.17 0.13 0.11 0.08 0.06 0.05 0.04
0.15 0.15 0.14 0.15 0.23 0.34 0.41 0.48 0.50 0.44 0.38 0.35 0.35 0.33 0.31 0.29 0.29 0.32 0.34 0.41 0.43 0.47 0.47 0.41 0.39 0.37 0.33 0.27 0.26 0.30 0.36 0.42 0.43 0.34 0.34 0.37 0.33 0.27 0.22 0.20 0.19 0.16 0.14
0.11 0.08 0.06 0.08 0.16 0.21 0.25 0.38 0.42 0.40 0.39 0.35 0.35 0.38 0.35 0.29 0.24 0.23 0.21 0.27 0.31 0.42 0.46 0.46 0.46 0.46 0.43 0.35 0.31 0.38 0.43 0.50 0.52 0.48 0.41 0.39 0.39 0.33 0.31 0.27 0.25 0.24 0.23
0.09 0.07 0.05 0.05 0.07 0.08 0.13 0.19 0.27 0.36 0.41 0.41 0.40 0.42 0.38 0.31 0.31 0.24 0.18 0.16 0.18 0.21 0.28 0.33 0.37 0.41 0.45 0.46 0.49 0.49 0.51 0.49 0.49 0.57 0.46 0.47 0.43 0.38 0.36 0.30 0.29 0.31 0.32
0.04 0.03 0.03 0.04 0.04 0.03 0.03 0.06 0.15 0.30 0.41 0.40 0.38 0.49 0.54 0.48 0.44 0.42 0.37 0.26 0.19 0.14 0.17 0.22 0.31 0.35 0.35 0.38 0.45 0.50 0.56 0.58 0.48 0.47 0.35 0.33 0.32 0.28 0.29 0.29 0.26 0.27 0.31
0.02 0.02 0.04 0.06 0.04 0.01 0.01 0.01 0.06 0.19 0.30 0.33 0.32 0.42 0.63 0.64 0.59 0.55 0.56 0.59 0.45 0.29 0.24 0.20 0.26 0.26 0.23 0.29 0.40 0.46 0.45 0.32 0.24 0.20 0.14 0.15 0.19 0.18 0.18 0.17 0.16 0.15 0.16
0.02 0.02 0.02 0.04 0.04 0.03 0.02 0.01 0.04 0.12 0.19 0.23 0.26 0.35 0.49 0.60 0.60 0.59 0.55 0.56 0.52 0.37 0.31 0.26 0.17 0.14 0.14 0.18 0.25 0.34 0.36 0.29 0.20 0.18 0.12 0.09 0.10 0.10 0.10 0.10 0.09 0.08 0.07
0.02 0.02 0.01 0.01 0.01 0.01 0.01 0.02 0.01 0.03 0.06 0.08 0.13 0.22 0.36 0.40 0.41 0.44 0.50 0.57 0.63 0.43 0.32 0.33 0.27 0.21 0.18 0.23 0.35 0.44 0.45 0.40 0.31 0.31 0.28 0.23 0.20 0.16 0.16 0.13 0.08 0.06 0.05